RH
9 9 9 10 12 15 16 16 13 13 18 18 26 26 28 73 98 100 100 100 100 100 100 100 100 100 100 100 100 100 100 100 100 100 98 79 81 69 55 47 47 42 43 64 74 61 49 49 60
8 9 9 9 10 14 15 15 13 12 26 18 30 34 30 39 71 98 100 100 100 96 100 100 97 86 98 98 100 100 100 100 91 93 96 84 70 50 35 53 52 52 75 88 55 43 44 70 87
8 8 9 9 10 12 13 10 10 17 20 23 23 26 30 30 32 57 100 100 99 100 100 97 86 97 99 98 100 100 100 100 97 82 69 65 56 45 69 48 44 73 82 53 50 56 71 95 100
8 8 8 10 10 10 10 9 12 16 17 20 22 25 30 32 37 38 94 100 100 99 88 92 95 100 99 89 100 100 94 74 84 70 50 58 58 53 57 62 90 64 50 57 79 77 100 100 88
8 9 10 12 10 9 9 10 12 12 13 16 18 24 31 36 42 54 49 68 100 100 100 97 100 97 88 84 92 83 80 63 60 68 51 64 70 66 74 74 71 55 72 100 74 96 100 94 70
12 11 9 10 10 8 8 9 10 12 13 14 16 23 41 100 100 100 62 90 100 98 100 87 75 85 88 92 79 68 68 87 60 92 96 75 69 73 72 67 69 100 91 86 88 83 88 73 67
15 13 11 9 8 9 9 99 46 16 15 12 14 23 39 42 60 97 99 100 100 100 100 100 99 100 99 100 96 100 95 94 99 82 100 84 74 89 88 86 100 99 100 100 85 72 73 79 78
16 15 11 13 10 10 10 17 18 15 17 13 14 21 37 46 100 100 100 100 100 100 100 100 100 100 100 100 100 100 100 88 99 100 100 98 96 98 100 100 100 100 100 93 79 70 85 74 77
16 24 23 24 20 43 100 89 25 18 23 19 15 24 50 100 100 94 100 98 100 100 100 100 100 100 100 100 100 100 100 100 100 97 90 100 100 100 100 100 98 94 84 71 70 82 63 60 46
30 40 31 34 56 100 100 94 31 34 61 27 26 31 43 75 100 100 100 100 83 95 100 100 100 100 100 100 100 89 99 100 100 100 100 100 100 100 100 99 83 79 74 84 67 49 39 34 35
59 65 54 81 100 100 99 64 72 50 62 31 33 45 79 64 93 100 100 99 100 100 100 100 100 97 86 100 95 78 94 100 100 100 100 100 100 100 97 88 85 68 86 72 56 40 36 33 35
100 100 90 80 76 94 84 86 97 82 64 53 48 64 62 78 94 84 100 100 100 100 100 100 100 100 100 96 100 99 100 100 100 100 100 100 100 100 98 99 84 84 65 56 43 36 38 39 42
100 100 97 99 100 95 98 100 78 86 89 80 74 72 82 84 85 78 99 100 100 100 100 100 89 90 96 96 100 100 100 100 97 100 100 100 100 91 97 84 63 62 46 34 33 49 50 54 70
100 98 100 100 100 100 100 100 100 97 100 96 88 84 97 100 86 86 90 100 100 100 100 100 100 100 100 100 100 97 90 94 99 85 98 92 94 90 78 77 56 58 50 64 57 44 74 100 100
100 100 100 100 100 100 94 100 100 100 100 100 100 100 100 100 100 100 100 100 100 100 100 100 100 100 94 100 95 100 83 70 82 100 90 91 79 72 68 85 97 97 100 68 69 100 100 100 100
100 100 100 92 100 99 79 85 100 100 100 100 100 100 100 100 99 96 95 87 88 100 95 94 98 97 100 100 68 72 86 100 100 91 68 87 95 100 100 100 99 96 82 100 100 100 99 98 100
100 100 97 91 100 100 100 100 100 100 100 100 78 81 84 100 100 97 91 90 88 99 97 90 80 91 75 84 91 100 100 100 100 100 100 100 98 78 100 100 100 92 95 100 100 100 100 96 100
100 100 100 93 89 87 100 100 100 100 100 78 100 99 100 100 98 100 100 100 100 100 100 99 100 100 100 100 100 100 100 98 99 100 100 100 97 100 100 100 100 100 100 100 100 54 79 83 69
98 100 98 98 100 100 100 100 100 100 100 100 100 100 100 99 91 100 100 100 100 98 98 79 82 80 94 83 75 33 21 57 52 84 65 79 98 100 99 100 100 100 100 100 100 52 52 52 47
99 100 100 100 100 100 100 100 100 100 100 100 100 100 100 100 100 100 97 87 70 69 83 88 87 68 35 19 26 34 31 37 45 35 35 60 51 43 41 44 42 40 39 35 33 37 40 42 45
100 100 100 100 100 100 100 100 100 100 100 100 100 100 100 88 81 78 79 72 68 62 43 24 21 25 28 29 28 28 29 29 29 29 31 33 32 32 35 35 35 34 34 36 38 44 48 47 49
100 100 100 100 100 100 100 100 100 88 77 79 81 82 86 86 79 70 60 38 22 24 31 33 31 30 28 27 27 27 28 28 31 33 36 37 40 37 38 37 36 36 41 44 41 46 54 60 65
100 100 100 100 100 100 96 99 90 94 91 78 79 74 57 48 37 21 21 35 35 34 33 32 32 30 30 32 32 32 32 31 29 27 27 29 28 28 29 32 44 45 42 46 54 51 57 57 56
100 100 100 95 88 81 80 84 79 66 64 49 43 37 23 20 27 35 34 36 36 37 35 32 32 31 30 33 36 41 43 45 50 55 53 51 48 49 50 48 44 50 53 53 53 58 59 55 53
91 91 94 96 82 57 44 42 42 43 35 24 21 25 32 35 35 38 40 40 38 36 34 33 32 34 38 47 52 54 54 58 60 55 51 49 49 48 45 45 48 50 53 54 61 62 68 64 56
51 40 41 43 50 49 49 43 29 24 23 34 38 36 37 39 44 45 40 38 37 37 38 38 38 48 60 69 70 66 67 63 56 46 48 51 52 50 49 49 52 53 64 68 73 72 64 57 50
63 60 47 41 34 30 26 23 26 43 43 40 43 45 50 52 51 43 40 38 37 35 39 45 49 54 54 52 52 59 59 63 63 62 62 64 58 53 49 50 52 61 66 67 71 63 55 43 32
44 34 27 24 24 25 31 51 49 39 42 48 52 57 57 57 52 46 42 36 36 38 40 46 41 41 44 45 47 59 68 70 70 69 71 74 67 57 57 61 63 71 70 76 68 62 44 26 23
25 27 32 29 31 55 59 45 44 52 58 61 65 64 64 62 56 49 44 37 36 37 44 46 43 44 44 44 50 56 75 77 75 73 77 77 68 62 62 61 66 72 77 71 61 55 43 36 29
35 28 28 56 66 55 51 59 59 61 63 68 70 66 67 67 65 55 49 46 44 46 46 45 47 53 56 54 49 51 80 82 76 74 82 72 64 63 64 67 82 83 76 73 53 36 31 24 20
Wind_Speed
93 92 97 99 96 98 99 98 97 96 91 89 81 83 79 80 77 75 78 80 82 83 82 86 86 85 85 84 84 80 76 78 78 78 80 85 82 80 84 85 84 86 88 90 85 86 89 89 83
85 91 92 94 94 89 91 98 97 94 88 90 81 79 77 79 80 79 79 75 72 71 79 85 88 88 88 85 83 81 79 80 82 81 81 83 83 85 86 85 87 87 87 83 88 90 93 85 76
78 83 87 88 88 86 89 97 93 85 85 83 84 80 77 76 76 76 77 75 73 73 79 83 84 81 79 81 81 83 82 82 81 83 85 86 87 86 85 88 90 86 86 91 97 88 81 78 74
73 73 76 82 84 85 90 97 81 81 79 78 83 72 74 73 74 75 73 73 74 77 77 81 81 82 82 80 79 75 78 84 84 86 87 85 82 84 89 88 85 87 91 94 84 81 78 77 74
63 68 69 70 76 85 82 79 74 80 78 73 72 66 69 71 75 76 75 77 80 77 78 82 81 76 80 84 84 85 86 84 86 87 86 87 87 88 87 88 90 94 85 75 79 75 72 71 72
53 56 62 66 69 71 75 69 71 68 70 70 69 62 65 52 47 56 67 67 67 69 75 78 74 76 74 77 78 81 82 76 83 81 75 83 87 89 88 89 91 76 79 76 69 73 73 72 72
48 49 54 60 64 57 51 29 68 67 64 69 66 65 67 71 66 45 45 52 47 38 51 60 64 66 60 53 63 64 74 79 64 74 79 86 89 87 86 85 80 78 71 71 74 70 71 68 64
42 46 49 51 52 50 48 59 59 61 63 64 60 62 67 62 53 53 46 43 60 61 63 63 59 67 64 60 62 65 71 75 79 73 81 82 83 77 75 73 70 75 74 73 76 73 67 66 60
42 42 43 45 43 21 32 46 56 55 58 60 60 61 66 64 59 61 61 60 45 59 59 56 63 64 68 71 66 72 74 68 72 81 87 74 75 76 73 76 78 77 76 76 71 65 64 59 57
37 40 39 37 23 19 57 55 52 47 54 61 59 60 66 66 64 64 70 73 76 77 75 72 78 80 75 67 67 63 72 73 69 69 73 76 75 81 83 79 81 76 77 68 65 63 59 54 52
32 31 33 32 33 38 42 44 39 45 52 56 55 47 58 65 70 73 73 68 69 76 78 69 68 76 71 68 72 81 68 65 68 68 71 77 82 75 76 78 79 78 65 65 64 60 61 58 56
25 25 29 34 40 41 36 29 34 36 49 48 50 54 59 57 65 68 70 68 71 74 73 72 65 60 59 64 59 64 67 64 68 74 78 74 68 63 74 71 74 72 72 69 68 65 62 62 56
29 30 26 26 29 30 22 12 34 30 33 37 42 47 49 52 63 63 63 65 60 71 75 75 78 77 75 75 71 72 70 75 77 74 60 60 71 75 78 75 76 74 71 69 67 67 66 60 56
31 26 27 26 30 27 27 40 42 28 28 31 37 41 45 48 50 52 56 69 72 73 72 76 77 79 75 74 69 72 73 74 74 75 71 73 72 70 70 69 71 72 74 75 75 71 64 64 70
27 28 28 29 29 25 28 34 33 26 26 27 30 35 35 32 36 43 47 52 59 65 68 71 68 69 72 70 70 66 68 70 72 68 70 65 69 67 67 71 72 72 71 77 75 73 66 78 80
32 29 30 29 29 30 29 26 23 24 24 22 23 24 27 30 31 34 35 40 43 47 55 57 59 58 62 65 60 63 68 57 53 60 66 63 62 60 64 70 74 77 74 69 78 80 87 88 92
31 30 28 23 20 20 19 21 17 24 26 27 24 23 27 30 41 41 39 43 49 55 55 56 56 58 62 68 69 72 65 46 54 62 56 55 66 70 69 71 76 83 82 82 86 90 95 97 101
33 31 25 20 19 21 24 26 25 27 30 28 31 31 31 38 38 41 46 47 48 51 58 60 63 65 67 63 64 62 56 55 58 59 63 63 72 71 74 78 81 85 89 95 96 100 102 102 99
29 27 22 22 24 25 29 27 27 30 32 33 34 34 36 37 43 51 49 46 47 50 55 58 60 61 62 62 59 54 55 54 59 61 67 71 77 77 82 85 88 94 98 99 102 89 87 89 88
27 24 24 24 23 28 32 34 34 34 34 36 41 43 43 42 43 44 47 50 55 60 59 55 54 52 49 46 46 47 49 53 57 61 60 67 73 76 76 79 81 82 85 85 85 87 86 85 81
26 27 27 26 26 29 31 33 35 35 35 36 39 40 42 43 44 48 49 51 50 45 43 40 39 37 37 39 41 44 48 52 57 60 64 68 71 74 77 80 83 84 83 81 77 74 75 79 88
29 31 29 29 26 29 30 30 35 36 36 37 40 42 42 42 42 40 40 39 35 33 29 29 32 36 39 43 47 51 55 59 63 67 70 71 76 77 78 78 77 73 70 68 74 78 83 89 93
33 32 30 28 30 32 32 35 37 34 33 34 35 35 35 35 34 31 29 24 23 25 29 32 36 40 43 46 50 55 59 62 64 66 68 69 70 70 70 68 66 68 71 76 80 85 92 98 101
28 29 30 32 34 34 33 33 34 28 29 31 31 31 30 27 22 20 20 22 25 29 33 36 39 42 45 48 51 53 55 57 59 59 60 62 62 62 62 66 69 74 77 82 86 93 97 100 104
30 30 31 32 31 29 29 27 23 27 27 27 26 22 18 17 17 18 21 24 28 31 35 38 41 43 45 49 51 53 55 56 57 58 59 61 66 68 70 73 74 76 82 87 93 96 99 102 102
30 28 25 23 23 22 23 24 24 22 19 17 16 16 16 16 18 20 22 26 29 32 34 36 38 42 47 50 53 55 57 58 60 59 61 64 65 66 67 70 76 84 88 95 98 101 102 103 105
21 20 20 21 22 23 21 20 18 17 15 15 16 16 17 19 21 21 25 28 31 34 37 39 41 45 48 52 54 58 63 64 64 64 66 68 69 70 71 74 82 88 95 98 101 103 104 106 108
22 22 21 21 21 21 19 20 19 16 15 16 17 19 21 23 23 26 29 33 34 38 42 45 47 50 54 60 63 67 70 73 72 72 72 74 76 76 79 83 89 96 99 103 105 106 106 108 108
23 24 22 20 20 19 20 17 16 17 18 20 21 23 25 27 28 30 33 36 38 42 46 50 55 60 64 66 70 75 77 79 77 76 78 79 81 81 84 90 96 101 104 106 106 108 109 112 113
24 22 19 19 20 19 18 17 18 20 22 25 26 27 30 32 34 36 40 43 46 50 52 57 62 66 70 74 78 80 83 85 81 80 83 85 84 85 90 96 102 106 109 108 107 107 110 113 111
Wind_Direction
245 246 247 248 249 249 249 249 252 253 252 253 252 253 252 251 254 257 259 260 261 262 265 265 266 270 272 274 275 275 275 275 277 279 283 285 288 293 293 296 297 297 298 299 297 297 299 301 304
244 245 246 248 249 248 247 248 250 253 253 254 252 252 251 251 251 253 255 260 262 264 264 264 265 269 270 272 274 275 276 275 280 283 287 287 292 294 294 296 296 296 295 293 301 301 304 301 298
246 247 247 247 248 248 248 251 251 252 255 255 254 255 253 253 254 253 255 258 262 263 265 267 270 272 273 274 274 275 277 280 281 285 289 290 291 293 295 295 293 294 296 300 300 300 298 297 297
247 246 247 247 248 249 250 250 249 251 252 254 256 257 256 255 254 254 251 253 261 265 267 266 271 272 271 274 276 279 279 282 285 288 288 290 291 291 293 293 291 295 297 298 299 297 292 294 301
249 249 248 247 247 249 250 252 255 253 253 252 255 254 255 255 251 253 255 255 255 263 267 268 269 270 274 275 277 279 280 285 287 288 288 290 291 292 292 292 294 296 297 294 298 297 296 298 304
245 249 247 249 251 251 253 257 257 253 250 251 253 248 244 237 238 253 255 258 263 268 264 267 274 278 280 279 282 282 287 286 287 287 288 291 291 294 293 292 295 293 296 295 294 299 295 300 302
243 244 244 248 254 254 252 225 250 249 248 248 247 243 242 244 249 251 254 259 255 254 259 270 274 278 279 278 285 279 277 284 284 281 289 290 288 293 294 296 292 290 291 293 300 301 301 299 297
238 241 242 244 249 249 255 242 245 244 243 246 240 240 241 240 224 225 243 248 241 244 256 265 268 276 277 275 274 276 279 276 284 281 290 290 290 294 290 287 290 294 297 296 300 303 299 298 296
232 237 236 239 241 224 253 250 242 238 238 238 238 232 236 229 230 235 230 231 233 239 249 256 262 264 272 272 278 277 279 281 283 285 289 291 287 288 286 293 292 294 297 299 300 296 297 292 295
228 230 229 231 236 237 224 240 238 233 241 235 234 233 236 233 231 222 226 233 243 247 259 261 258 263 267 271 272 270 280 288 289 287 284 283 284 289 293 295 296 296 299 299 299 300 298 297 296
223 229 230 197 190 213 235 238 243 235 239 240 237 230 238 235 231 227 232 241 245 244 248 254 259 261 267 271 272 281 282 282 279 282 282 287 291 293 293 295 298 297 297 294 296 294 298 299 297
211 219 228 222 222 226 236 238 233 240 241 243 241 239 236 238 238 240 237 237 240 243 248 253 258 260 262 270 272 273 280 279 280 286 287 290 290 290 293 295 296 293 294 295 297 298 301 304 298
208 215 221 218 221 229 225 239 263 240 248 247 244 244 245 246 243 243 240 239 246 246 251 252 255 259 266 270 276 276 278 282 287 289 289 286 287 290 294 293 293 294 296 299 300 303 302 308 307
213 213 208 206 212 212 204 197 224 238 237 242 242 242 239 242 252 253 249 241 246 250 252 256 260 263 266 272 275 275 281 283 285 288 285 289 292 290 292 291 296 299 302 305 303 303 306 297 296
199 206 205 204 215 218 213 215 225 234 238 242 241 242 250 249 255 255 256 253 255 257 258 262 262 267 274 271 273 279 285 286 287 287 289 289 290 292 292 296 297 300 297 298 301 299 289 289 283
196 204 211 213 215 217 222 221 219 229 220 224 234 239 235 239 245 252 259 263 263 260 260 262 265 271 271 278 280 283 282 286 286 289 290 292 291 290 289 290 289 289 295 286 284 284 285 287 288
197 209 211 206 207 207 217 216 233 217 220 217 241 246 248 237 253 253 260 264 263 262 265 267 271 272 273 275 278 280 279 276 281 283 284 284 284 283 285 287 289 289 289 288 286 285 285 287 288
193 203 211 213 213 208 213 228 239 238 229 249 246 253 259 264 265 267 266 269 272 273 270 270 270 273 275 279 279 276 272 268 271 271 274 273 275 278 276 279 279 282 282 284 288 292 289 290 292
195 197 210 213 213 213 219 233 234 238 246 252 255 261 263 257 257 257 257 265 272 276 278 278 278 281 280 282 282 279 278 272 276 277 279 277 275 279 284 280 278 280 283 285 287 292 294 292 290
193 203 204 216 214 218 225 231 234 239 243 244 253 253 250 254 254 264 266 272 275 275 273 273 277 279 279 281 282 283 283 284 281 284 284 279 281 282 285 285 284 285 287 288 292 295 294 294 294
199 211 212 213 218 222 223 229 235 237 242 244 246 253 259 267 269 271 270 273 276 277 276 276 277 278 279 281 283 282 282 282 283 284 284 284 285 286 288 290 292 292 294 295 296 296 296 297 300
209 216 222 225 227 228 227 235 246 248 258 262 262 262 262 263 266 270 275 276 274 276 281 284 288 290 293 295 298 298 296 295 295 294 292 291 291 291 291 292 293 293 293 295 299 300 298 295 294
215 219 223 220 223 234 237 245 253 257 258 260 262 263 263 267 270 269 267 268 278 285 292 298 302 302 302 300 299 298 297 295 295 295 294 293 292 292 294 295 295 296 297 297 296 296 296 295 294
217 222 228 233 238 242 248 251 252 259 258 259 261 264 263 260 253 261 274 285 298 303 304 304 303 303 304 304 306 308 307 307 307 307 307 305 301 298 297 297 298 298 298 297 298 298 298 296 295
229 232 235 238 242 243 245 251 255 250 255 261 258 249 249 262 274 287 300 306 306 305 306 307 307 308 311 314 313 311 310 310 309 309 308 307 305 303 300 299 299 302 302 302 302 305 304 303 300
237 232 234 240 245 246 247 249 249 255 250 238 250 265 275 283 292 298 299 300 305 307 308 310 311 312 313 314 313 313 312 311 309 307 308 309 306 303 301 301 303 306 307 308 309 307 306 303 301
223 227 234 240 244 243 245 251 248 233 238 252 267 276 280 285 287 290 295 300 300 306 310 313 313 314 315 316 318 317 320 319 318 316 313 310 307 306 305 304 306 307 309 310 310 309 307 306 305
226 228 232 235 240 243 236 223 225 236 251 262 268 275 281 283 284 289 292 294 299 304 308 310 310 312 316 318 320 320 322 321 319 317 315 313 311 308 306 308 309 311 312 313 313 311 309 309 310
226 226 225 221 216 213 215 228 241 252 261 265 271 278 282 283 282 286 290 294 297 301 305 308 311 315 317 319 318 319 319 321 318 316 315 314 314 311 310 311 312 314 315 315 314 312 312 311 308
223 221 206 200 206 215 225 235 248 256 261 267 275 280 282 281 282 283 291 294 298 301 304 309 311 314 316 317 318 319 317 319 318 316 316 317 314 312 312 314 317 318 317 317 314 313 313 310 307